Weather History for Sanford, ME

Change the Weather History Date:

Saturday, March 2, 2013

  Actual Average Record
Temperature  
Mean Temperature 36 °F -  
Max Temperature 42 °F 35 °F 55 °F (1997)
Min Temperature 30 °F 18 °F 3 °F (2001)
Degree Days  
Heating Degree Days 29    
Moisture  
Dew Point 26 °F    
Average Humidity 71    
Maximum Humidity 93    
Minimum Humidity 42    
Precipitation  
Precipitation 0.01 in - - ()
Sea Level Pressure  
Sea Level Pressure 29.62 in    
Wind  
Wind Speed 6 mph (NNW)    
Max Wind Speed 15 mph    
Max Gust Speed 18 mph    
Visibility 9 miles    
Events      
Averages and records for this station are not official NWS values.
T = Trace of Precipitation, MM = Missing Value Source: NWS Daily Summary

Daily Weather History Graph

Daily Weather History Graph

Search for Another Location

Airport:

Trip Planner

Search our weather history database for the weather conditions in past years. The results will help you decide how hot, cold, wet, or windy it might be!

Date:

Astronomy

Mar. 02, 2013 Rise Set
Actual Time 6:17 AM EST 5:33 PM EST
Civil Twilight 5:48 AM EST 6:01 PM EST
Nautical Twilight 5:15 AM EST 6:35 PM EST
Astronomical Twilight 4:42 AM EST 7:08 PM EST
Moon 11:20 PM EST (3/2) 8:32 AM EST (3/2)
Length of Visible Light 12h 13m
Length of Day
11h 16m
Waning Gibbous, 74% of the Moon is Illuminated
Mar 2
Waning Gibbous
Mar 4
Last Quarter
Mar 11
New
Mar 19
First Quarter
Mar 27
Full

Hourly Weather History & Observations

Time (EST) Temp. Windchill Dew Point Humidity Pressure Visibility Wind Dir Wind Speed Gust Speed Precip Events Conditions
12:35 AM 32.0 °F 26.4 °F 28.4 °F 87% 29.64 in 10.0 mi West 5.8 mph - N/A   Overcast
12:55 AM 32.0 °F 25.6 °F 26.6 °F 80% 29.64 in 10.0 mi West 6.9 mph - N/A   Overcast
1:15 AM 32.0 °F 25.6 °F 28.4 °F 87% 29.64 in 10.0 mi West 6.9 mph - N/A   Overcast
1:35 AM 32.0 °F 26.4 °F 26.6 °F 80% 29.63 in 10.0 mi West 5.8 mph - N/A   Overcast
1:55 AM 32.0 °F 27.5 °F 26.6 °F 80% 29.63 in 10.0 mi West 4.6 mph - N/A   Overcast
2:15 AM 32.0 °F 26.4 °F 26.6 °F 80% 29.63 in 10.0 mi WNW 5.8 mph - N/A   Overcast
2:35 AM 30.2 °F 25.4 °F 26.6 °F 86% 29.63 in 10.0 mi WNW 4.6 mph - N/A   Overcast
3:15 AM 30.2 °F 26.7 °F 24.8 °F 80% 29.63 in 10.0 mi West 3.5 mph - N/A   Overcast
3:35 AM 30.2 °F 25.4 °F 26.6 °F 86% 29.63 in 10.0 mi West 4.6 mph - N/A   Overcast
3:55 AM 30.2 °F 25.4 °F 26.6 °F 86% 29.63 in 10.0 mi WNW 4.6 mph - N/A   Mostly Cloudy
4:15 AM 30.2 °F 25.4 °F 26.6 °F 86% 29.63 in 10.0 mi WNW 4.6 mph - N/A   Partly Cloudy
4:35 AM 30.2 °F 25.4 °F 26.6 °F 86% 29.63 in 10.0 mi WNW 4.6 mph - N/A   Clear
4:55 AM 30.2 °F 26.7 °F 24.8 °F 80% 29.63 in 10.0 mi WNW 3.5 mph - N/A   Partly Cloudy
5:15 AM 30.2 °F 26.7 °F 24.8 °F 80% 29.63 in 10.0 mi WNW 3.5 mph - N/A   Mostly Cloudy
5:35 AM 30.2 °F - 24.8 °F 80% 29.63 in 10.0 mi Calm Calm - N/A   Overcast
5:55 AM 30.2 °F 26.7 °F 26.6 °F 86% 29.63 in 10.0 mi WNW 3.5 mph - N/A   Overcast
6:15 AM 30.2 °F - 24.8 °F 80% 29.63 in 10.0 mi Calm Calm - N/A   Overcast
6:35 AM 30.2 °F - 24.8 °F 80% 29.63 in 10.0 mi Calm Calm - N/A   Overcast
6:55 AM 30.2 °F 26.7 °F 24.8 °F 80% 29.63 in 10.0 mi NNW 3.5 mph - N/A   Overcast
7:35 AM 30.2 °F 26.7 °F 24.8 °F 80% 29.64 in 10.0 mi WNW 3.5 mph - N/A   Overcast
7:55 AM 32.0 °F 28.7 °F 26.6 °F 80% 29.64 in 10.0 mi NW 3.5 mph - N/A   Overcast
8:15 AM 33.8 °F 30.8 °F 24.8 °F 70% 29.64 in 10.0 mi NNW 3.5 mph - N/A   Overcast
8:35 AM 33.8 °F 28.6 °F 26.6 °F 75% 29.64 in 10.0 mi NW 5.8 mph - N/A   Overcast
8:55 AM 33.8 °F 28.6 °F 24.8 °F 70% 29.65 in 10.0 mi NNW 5.8 mph - N/A   Overcast
9:15 AM 35.6 °F 28.6 °F 24.8 °F 65% 29.65 in 10.0 mi NNW 9.2 mph - N/A   Overcast
9:35 AM 33.8 °F 29.6 °F 26.6 °F 75% 29.64 in 10.0 mi North 4.6 mph - N/A   Overcast
9:55 AM 35.6 °F 29.2 °F 26.6 °F 70% 29.63 in 10.0 mi North 8.1 mph - N/A   Overcast
10:35 AM 37.4 °F 31.4 °F 23.0 °F 56% 29.63 in 10.0 mi NNW 8.1 mph - N/A   Overcast
11:15 AM 39.2 °F 33.6 °F 23.0 °F 52% 29.63 in 10.0 mi NNW 8.1 mph - N/A   Overcast
11:35 AM 39.2 °F 34.2 °F 23.0 °F 52% 29.62 in 10.0 mi WNW 6.9 mph - N/A   Overcast
11:55 AM 41.0 °F 35.8 °F 23.0 °F 49% 29.62 in 10.0 mi NNW 8.1 mph - N/A   Overcast
12:15 PM 41.0 °F 35.8 °F 21.2 °F 45% 29.61 in 10.0 mi NW 8.1 mph - N/A   Overcast
12:35 PM 41.0 °F 37.1 °F 21.2 °F 45% 29.61 in 10.0 mi WNW 5.8 mph - N/A   Overcast
12:55 PM 41.0 °F 36.4 °F 24.8 °F 53% 29.60 in 10.0 mi NNW 6.9 mph - N/A   Overcast
1:15 PM 42.8 °F 38.0 °F 24.8 °F 49% 29.59 in 10.0 mi NNW 8.1 mph - N/A   Overcast
1:35 PM 42.8 °F 40.1 °F 21.2 °F 42% 29.59 in 10.0 mi West 4.6 mph - N/A   Overcast
1:55 PM 42.8 °F 38.0 °F 24.8 °F 49% 29.58 in 10.0 mi West 8.1 mph - N/A   Overcast
2:15 PM 42.8 °F 39.3 °F 21.2 °F 42% 29.58 in 10.0 mi WNW 5.8 mph - N/A   Overcast
2:35 PM 42.8 °F 39.3 °F 24.8 °F 49% 29.58 in 10.0 mi North 5.8 mph - N/A   Overcast
2:55 PM 39.2 °F 33.0 °F 23.0 °F 52% 29.58 in 10.0 mi ENE 9.2 mph - N/A   Overcast
3:15 PM 39.2 °F 34.2 °F 26.6 °F 61% 29.58 in 10.0 mi NNE 6.9 mph - N/A   Overcast
3:35 PM 39.2 °F 34.2 °F 24.8 °F 56% 29.59 in 10.0 mi NNE 6.9 mph - N/A   Overcast
3:55 PM 39.2 °F 33.0 °F 26.6 °F 61% 29.59 in 10.0 mi NNE 9.2 mph - N/A   Overcast
4:15 PM 39.2 °F 34.2 °F 23.0 °F 52% 29.59 in 10.0 mi North 6.9 mph - N/A   Overcast
4:35 PM 39.2 °F 35.0 °F 26.6 °F 61% 29.60 in 10.0 mi North 5.8 mph - N/A   Overcast
4:55 PM 39.2 °F 37.0 °F 26.6 °F 61% 29.60 in 10.0 mi North 3.5 mph - N/A   Overcast
5:15 PM 37.4 °F 32.8 °F 21.2 °F 52% 29.61 in 10.0 mi North 5.8 mph - N/A   Overcast
5:35 PM 37.4 °F 28.5 °F 28.4 °F 70% 29.62 in 10.0 mi NNE 15.0 mph - N/A   Overcast
5:55 PM 35.6 °F 28.0 °F 28.4 °F 75% 29.63 in 10.0 mi NNE 10.4 mph - N/A   Overcast
6:15 PM 35.6 °F 27.1 °F 24.8 °F 65% 29.63 in 10.0 mi North 12.7 mph 18.4 mph N/A   Overcast
6:35 PM 35.6 °F 27.1 °F 26.6 °F 70% 29.64 in 10.0 mi North 12.7 mph - N/A   Overcast
6:55 PM 33.8 °F 26.4 °F 26.6 °F 75% 29.64 in 10.0 mi NNE 9.2 mph - N/A   Overcast
7:15 PM 33.8 °F 27.0 °F 26.6 °F 75% 29.64 in 10.0 mi North 8.1 mph - N/A   Overcast
7:35 PM 33.8 °F 28.6 °F 28.4 °F 81% 29.64 in 10.0 mi North 5.8 mph - N/A   Overcast
7:55 PM 33.8 °F 27.0 °F 28.4 °F 81% 29.64 in 10.0 mi North 8.1 mph - N/A   Overcast
8:15 PM 33.8 °F 27.7 °F 28.4 °F 81% 29.64 in 10.0 mi NNW 6.9 mph - N/A   Overcast
8:35 PM 33.8 °F 27.7 °F 24.8 °F 70% 29.65 in 10.0 mi North 6.9 mph - N/A   Overcast
8:55 PM 33.8 °F 27.7 °F 24.8 °F 70% 29.65 in 10.0 mi NNW 6.9 mph - N/A   Overcast
9:15 PM 33.8 °F 27.7 °F 28.4 °F 81% 29.65 in 10.0 mi NNW 6.9 mph - N/A   Overcast
9:35 PM 33.8 °F 29.6 °F 26.6 °F 75% 29.65 in 10.0 mi NNW 4.6 mph - N/A   Overcast
9:55 PM 33.8 °F 30.8 °F 26.6 °F 75% 29.64 in 10.0 mi NNW 3.5 mph - N/A   Overcast
10:15 PM 32.0 °F 26.4 °F 28.4 °F 87% 29.64 in 2.0 mi NW 5.8 mph - N/A   Overcast
10:35 PM 32.0 °F 28.7 °F 30.2 °F 93% 29.63 in 2.0 mi NW 3.5 mph - N/A   Overcast
10:55 PM 32.0 °F 25.6 °F 26.6 °F 80% 29.63 in 2.0 mi NW 6.9 mph - N/A   Overcast
11:15 PM 32.0 °F 26.4 °F 26.6 °F 80% 29.62 in 2.0 mi WNW 5.8 mph - 0.01 in   Overcast
11:35 PM 30.2 °F 24.3 °F 28.4 °F 93% 29.62 in 2.0 mi WNW 5.8 mph - 0.01 in   Overcast